星链-37658(STARLINK-37658)

导读

STARLINK-37658(NORAD编号69138)是美国SpaceX公司星链(Starlink)星座的一颗低轨通信卫星,隶属于星链第二代组网卫星,旨在为全球提供高速宽带互联网服务。 该卫星采用星链标志性的平板设计,搭载氪工质霍尔推进器,具备轨道机动、自主避撞能力,寿命末期可主动离轨再入大气层烧毁。它运行在近地轨道,通过Ku/Ka波段通信和相控阵技术提供服务,是SpaceX大规模组网星座的组成部分,支撑星链全球覆盖的通信能力。

Basic Information
目录编号:
69138
目录名称:
STARLINK-37658
国际标识:
2026-110Q
轨道中心:
EARTH
卫星名称:
星链-37658
卫星全名:
星链-37658(STARLINK-37658)
卫星状态:
在轨 (已飞行114 天)
发射日期:
2026-05-20 UTC
国别 :
美国 (US)
星等 :
--
This satellite is enrolled in the Space Conjunction Data Service (SCDS) and the current flight risk assessment level is: No High Risk
Orbit Information
数据来源 国际轨道数据 AOE轨道数据
星历时间 2026-09-10T19:48:46+0800
1天前
查看轨道信息
2026-09-06T22:00:00+0800
4天前
查看轨道信息
半长轴 6843.665km 6843.671km
偏心率 0.0001503 0.0001437
轨道倾角 97.283° 97.285°
近地点辐角 72.502° 91.541°
升交点赤经 88.707° 84.856°
平近点角 287.639° 304.226°
近地点 464.499km 464.55km
远地点 466.557km 466.518km
周期 93.906分钟 93.906分钟
每日圈数 15.334504 15.334484
Detailed Information
固有亮度:
5
最大亮度:
2.5
卫星平台:
Starlink V1.0
覆盖范围:
全球
运营商:
太空探索技术公司
运营商所在国:
美国
制造商(研发单位):
太空探索技术公司
制造商所在国:
美国
使用方式:
暂无
Satellite Introduction
Starlink 计划是 SpaceX 推出的全球卫星互联网项目,通过发射低轨道卫星,为全球尤其是偏远地区提供高速、低延迟的互联网服务。自 2019 年起,Starlink 已部署数千颗卫星,旨在缩小全球数字鸿沟,推动互联网普及。该项目还为军事、航空等行业提供通信支持,带来广泛经济效益。
2D Orbit Map
3D Orbit Map
Orbit Altitude Analysis Chart
Orbit Inclination Analysis Chart
Orbit Comprehensive Analysis Chart
View Comprehensive Chart
Conjunction Data List
Event ID Objects TCA Miss Dist (km) Collision Risk Probability Collision Risk Index (CRI) Action
CDM_260912-074804-117306-913827
DAMPE (41173)
2026-09-12T
07:48:11+0000
1.888 km
极远距离
3.37553E-6 低风险 0.46
CDM_260910-034603-628306-913821
2026-09-10T
03:46:00+0000
2.863 km
极远距离
1.424877E-6 低风险 0.38
CDM_260913-170105-319706-913821
2026-09-13T
17:01:27+0000
2.851 km
极远距离
1.397221E-6 低风险 0.38
CDM_260912-081006-862806-913822
MISR-C-1 (68628)
2026-09-12T
08:10:56+0000
2.782 km
极远距离
1.358812E-6 低风险 0.38
CDM_260913-012606-278406-913821
2026-09-13T
01:26:41+0000
2.788 km
极远距离
1.204273E-6 低风险 0.37
CDM_260913-094406-152806-913821
2026-09-13T
09:44:06+0000
2.999 km
极远距离
1.188035E-6 低风险 0.36
Miss Distance Evolution Trend with All Objects
Collision Probability Evolution Trend with All Objects